Time,TemperatureF,DewpointF,PressureIn,WindDirection,WindDirectionDegrees,WindSpeedMPH,WindSpeedGustMPH,Humidity,HourlyPrecipIn,Conditions,Clouds,dailyrainin,SoftwareType,DateUTC
2013-05-09 00:03:00,61.0,58.0,29.93,ENE,72,0.0,-999.0,89,-99.99,,,-99.99,,2013-05-09 04:03:00,
2013-05-09 00:12:00,61.0,58.0,29.93,ENE,72,0.0,-999.0,89,-99.99,,,-99.99,,2013-05-09 04:12:00,
2013-05-09 00:23:00,61.0,58.0,29.93,ENE,73,0.0,-999.0,90,-99.99,,,-99.99,,2013-05-09 04:23:00,
2013-05-09 00:33:00,60.0,57.0,29.93,ENE,73,0.0,-999.0,90,-99.99,,,-99.99,,2013-05-09 04:33:00,
2013-05-09 00:43:00,60.0,57.0,29.93,ENE,73,0.0,-999.0,90,-99.99,,,-99.99,,2013-05-09 04:43:00,
2013-05-09 00:53:00,60.0,57.0,29.94,ENE,72,0.0,-999.0,90,-99.99,,,-99.99,,2013-05-09 04:53:00,
2013-05-09 01:02:00,60.0,57.0,29.94,ENE,72,0.0,-999.0,90,-99.99,,,-99.99,,2013-05-09 05:02:00,
2013-05-09 01:12:00,60.0,57.0,29.94,ENE,72,0.0,-999.0,90,-99.99,,,-99.99,,2013-05-09 05:12:00,
2013-05-09 01:22:00,60.0,57.0,29.93,ENE,73,0.0,-999.0,90,-99.99,,,-99.99,,2013-05-09 05:22:00,
2013-05-09 01:32:00,60.0,57.0,29.94,ENE,72,0.0,-999.0,91,-99.99,,,-99.99,,2013-05-09 05:32:00,
2013-05-09 01:42:00,60.0,57.0,29.94,ENE,72,0.0,-999.0,91,-99.99,,,-99.99,,2013-05-09 05:42:00,
2013-05-09 01:52:00,60.0,57.0,29.94,ENE,72,0.0,-999.0,91,-99.99,,,-99.99,,2013-05-09 05:52:00,
2013-05-09 02:02:00,60.0,57.0,29.94,ENE,72,0.0,-999.0,91,-99.99,,,-99.99,,2013-05-09 06:02:00,
2013-05-09 02:12:00,60.0,57.0,29.94,ENE,72,0.0,-999.0,91,-99.99,,,-99.99,,2013-05-09 06:12:00,
2013-05-09 02:21:00,59.0,56.0,29.94,ENE,73,0.0,-999.0,90,-99.99,,,-99.99,,2013-05-09 06:21:00,
2013-05-09 02:32:00,58.0,55.0,29.93,ENE,73,0.0,-999.0,90,-99.99,,,-99.99,,2013-05-09 06:32:00,
2013-05-09 02:42:00,58.0,55.0,29.93,ENE,73,0.0,-999.0,90,-99.99,,,-99.99,,2013-05-09 06:42:00,
2013-05-09 02:52:00,58.0,55.0,29.93,ENE,73,0.0,-999.0,91,-99.99,,,-99.99,,2013-05-09 06:52:00,
2013-05-09 03:01:00,58.0,55.0,29.93,ENE,73,0.0,-999.0,91,-99.99,,,-99.99,,2013-05-09 07:01:00,
2013-05-09 03:12:00,58.0,55.0,29.92,ENE,73,0.0,-999.0,91,-99.99,,,-99.99,,2013-05-09 07:12:00,
2013-05-09 03:21:00,58.0,55.0,29.92,ENE,73,0.0,-999.0,91,-99.99,,,-99.99,,2013-05-09 07:21:00,
2013-05-09 03:32:00,58.0,55.0,29.93,ENE,72,0.0,-999.0,91,-99.99,,,-99.99,,2013-05-09 07:32:00,
2013-05-09 03:42:00,58.0,55.0,29.93,ENE,72,0.0,-999.0,91,-99.99,,,-99.99,,2013-05-09 07:42:00,
2013-05-09 03:52:00,58.0,55.0,29.93,ENE,72,0.0,-999.0,91,-99.99,,,-99.99,,2013-05-09 07:52:00,
2013-05-09 04:02:00,57.0,54.0,29.93,ENE,72,0.0,-999.0,91,-99.99,,,-99.99,,2013-05-09 08:02:00,
2013-05-09 04:11:00,57.0,54.0,29.93,ENE,72,0.0,-999.0,91,-99.99,,,-99.99,,2013-05-09 08:11:00,
2013-05-09 04:21:00,57.0,55.0,29.92,ENE,73,0.0,-999.0,92,-99.99,,,-99.99,,2013-05-09 08:21:00,
2013-05-09 04:32:00,57.0,55.0,29.92,ENE,73,0.0,-999.0,92,-99.99,,,-99.99,,2013-05-09 08:32:00,
2013-05-09 04:42:00,57.0,55.0,29.92,ENE,73,0.0,-999.0,92,-99.99,,,-99.99,,2013-05-09 08:42:00,
2013-05-09 04:52:00,57.0,55.0,29.92,ENE,73,0.0,-999.0,92,-99.99,,,-99.99,,2013-05-09 08:52:00,
2013-05-09 05:02:00,57.0,55.0,29.92,ENE,73,0.0,-999.0,92,-99.99,,,-99.99,,2013-05-09 09:02:00,
2013-05-09 05:11:00,57.0,55.0,29.92,ENE,73,0.0,-999.0,92,-99.99,,,-99.99,,2013-05-09 09:11:00,
2013-05-09 05:21:00,57.0,55.0,29.92,ENE,72,0.0,-999.0,93,-99.99,,,-99.99,,2013-05-09 09:21:00,
2013-05-09 05:32:00,56.0,54.0,29.92,ENE,73,0.0,-999.0,93,-99.99,,,-99.99,,2013-05-09 09:32:00,
2013-05-09 05:43:00,56.0,54.0,29.92,ENE,73,0.0,-999.0,93,-99.99,,,-99.99,,2013-05-09 09:43:00,
2013-05-09 05:53:00,56.0,54.0,29.92,ENE,72,0.0,-999.0,93,-99.99,,,-99.99,,2013-05-09 09:53:00,
2013-05-09 06:02:00,57.0,55.0,29.92,ENE,73,0.0,-999.0,93,-99.99,,,-99.99,,2013-05-09 10:02:00,
2013-05-09 06:12:00,57.0,55.0,29.93,ENE,73,0.0,-999.0,93,-99.99,,,-99.99,,2013-05-09 10:12:00,
2013-05-09 06:22:00,57.0,55.0,29.93,ENE,73,0.0,-999.0,93,-99.99,,,-99.99,,2013-05-09 10:22:00,
2013-05-09 06:33:00,56.0,54.0,29.93,ENE,73,0.0,-999.0,93,-99.99,,,-99.99,,2013-05-09 10:33:00,
2013-05-09 06:42:00,56.0,54.0,29.93,ENE,73,0.0,-999.0,93,-99.99,,,-99.99,,2013-05-09 10:42:00,
2013-05-09 06:53:00,56.0,54.0,29.93,ENE,72,0.0,-999.0,93,-99.99,,,-99.99,,2013-05-09 10:53:00,
2013-05-09 07:02:00,56.0,54.0,29.94,ENE,72,0.0,-999.0,93,-99.99,,,-99.99,,2013-05-09 11:02:00,
2013-05-09 07:12:00,57.0,55.0,29.95,ENE,73,0.0,-999.0,94,-99.99,,,-99.99,,2013-05-09 11:12:00,
2013-05-09 07:22:00,57.0,55.0,29.95,ENE,73,0.0,-999.0,94,-99.99,,,-99.99,,2013-05-09 11:22:00,
2013-05-09 07:32:00,58.0,56.0,29.96,ENE,73,0.0,-999.0,94,-99.99,,,-99.99,,2013-05-09 11:32:00,
2013-05-09 07:42:00,58.0,56.0,29.96,ENE,73,0.0,-999.0,94,-99.99,,,-99.99,,2013-05-09 11:42:00,
2013-05-09 07:52:00,59.0,57.0,29.96,ENE,73,0.0,-999.0,94,-99.99,,,-99.99,,2013-05-09 11:52:00,
2013-05-09 08:01:00,60.0,58.0,29.96,ENE,73,0.0,-999.0,93,-99.99,,,-99.99,,2013-05-09 12:01:00,
2013-05-09 08:11:00,61.0,58.0,29.97,ENE,71,0.0,-999.0,91,-99.99,,,-99.99,,2013-05-09 12:11:00,
2013-05-09 08:22:00,61.0,58.0,29.97,ENE,71,0.0,-999.0,91,-99.99,,,-99.99,,2013-05-09 12:22:00,
2013-05-09 08:32:00,61.0,58.0,29.97,ENE,71,0.0,-999.0,90,-99.99,,,-99.99,,2013-05-09 12:32:00,
2013-05-09 08:42:00,61.0,57.0,29.98,ENE,71,0.0,-999.0,88,-99.99,,,-99.99,,2013-05-09 12:42:00,
2013-05-09 08:52:00,61.0,57.0,29.98,ENE,71,0.0,-999.0,88,-99.99,,,-99.99,,2013-05-09 12:52:00,
2013-05-09 09:01:00,61.0,57.0,29.97,ENE,71,0.0,-999.0,86,-99.99,,,-99.99,,2013-05-09 13:01:00,
2013-05-09 09:12:00,61.0,57.0,29.97,ENE,71,0.0,-999.0,86,-99.99,,,-99.99,,2013-05-09 13:12:00,
2013-05-09 09:22:00,62.0,57.0,29.97,ENE,64,0.0,-999.0,83,-99.99,,,-99.99,,2013-05-09 13:22:00,
2013-05-09 09:32:00,63.0,57.0,29.97,ENE,64,0.0,-999.0,81,-99.99,,,-99.99,,2013-05-09 13:32:00,
2013-05-09 09:42:00,63.0,57.0,29.97,ENE,64,0.0,-999.0,81,-99.99,,,-99.99,,2013-05-09 13:42:00,
2013-05-09 09:52:00,63.0,56.0,29.97,ESE,110,0.0,-999.0,78,-99.99,,,-99.99,,2013-05-09 13:52:00,
2013-05-09 10:02:00,64.0,57.0,29.97,ESE,111,0.0,-999.0,77,-99.99,,,-99.99,,2013-05-09 14:02:00,
2013-05-09 10:11:00,64.0,57.0,29.97,ESE,111,0.0,-999.0,77,-99.99,,,-99.99,,2013-05-09 14:11:00,
2013-05-09 10:22:00,66.0,57.0,29.97,ESE,109,0.0,-999.0,73,-99.99,,,-99.99,,2013-05-09 14:22:00,
2013-05-09 10:32:00,67.0,57.0,29.97,NW,309,1.0,-999.0,70,-99.99,,,-99.99,,2013-05-09 14:32:00,
2013-05-09 10:42:00,67.0,57.0,29.97,NW,309,1.0,-999.0,70,-99.99,,,-99.99,,2013-05-09 14:42:00,
2013-05-09 10:52:00,67.0,56.0,29.97,WNW,284,0.0,-999.0,69,-99.99,,,-99.99,,2013-05-09 14:52:00,
2013-05-09 11:01:00,68.0,57.0,29.97,West,281,1.0,-999.0,68,-99.99,,,-99.99,,2013-05-09 15:01:00,
2013-05-09 11:11:00,68.0,57.0,29.97,West,281,1.0,-999.0,68,-99.99,,,-99.99,,2013-05-09 15:11:00,
2013-05-09 11:22:00,68.0,57.0,29.97,NW,306,1.0,-999.0,67,-99.99,,,-99.99,,2013-05-09 15:22:00,
2013-05-09 11:33:00,68.0,56.0,29.98,NW,307,0.0,-999.0,66,-99.99,,,-99.99,,2013-05-09 15:33:00,
2013-05-09 11:43:00,69.0,57.0,29.98,NNW,334,0.0,-999.0,65,-99.99,,,-99.99,,2013-05-09 15:43:00,
2013-05-09 11:53:00,69.0,57.0,29.98,NNW,334,0.0,-999.0,65,-99.99,,,-99.99,,2013-05-09 15:53:00,
2013-05-09 12:03:00,69.0,56.0,29.98,WNW,290,1.0,-999.0,63,-99.99,,,-99.99,,2013-05-09 16:03:00,
2013-05-09 12:12:00,69.0,56.0,29.98,WNW,290,1.0,-999.0,63,-99.99,,,-99.99,,2013-05-09 16:12:00,
2013-05-09 12:23:00,70.0,56.0,29.98,WNW,288,1.0,-999.0,62,-99.99,,,-99.99,,2013-05-09 16:23:00,
2013-05-09 12:33:00,71.0,56.0,29.98,WNW,291,0.0,-999.0,60,-99.99,,,-99.99,,2013-05-09 16:33:00,
2013-05-09 12:42:00,71.0,56.0,29.98,WNW,291,0.0,-999.0,60,-99.99,,,-99.99,,2013-05-09 16:42:00,
2013-05-09 12:53:00,72.0,55.0,29.98,WNW,293,0.0,-999.0,56,-99.99,,,-99.99,,2013-05-09 16:53:00,
2013-05-09 13:02:00,73.0,54.0,29.98,WNW,296,0.0,-999.0,52,-99.99,,,-99.99,,2013-05-09 17:02:00,
2013-05-09 13:12:00,73.0,54.0,29.98,WNW,296,0.0,-999.0,52,-99.99,,,-99.99,,2013-05-09 17:12:00,
2013-05-09 13:22:00,74.0,54.0,29.98,WNW,289,1.0,-999.0,49,-99.99,,,-99.99,,2013-05-09 17:22:00,
2013-05-09 13:32:00,74.0,52.0,29.98,NW,319,1.0,-999.0,46,-99.99,,,-99.99,,2013-05-09 17:32:00,
2013-05-09 13:42:00,74.0,52.0,29.98,NW,319,1.0,-999.0,46,-99.99,,,-99.99,,2013-05-09 17:42:00,
2013-05-09 13:55:00,74.0,52.0,29.98,NW,309,1.0,-999.0,46,-99.99,,,-99.99,,2013-05-09 17:55:00,
2013-05-09 14:01:00,75.0,53.0,29.98,WNW,284,1.0,-999.0,47,-99.99,,,-99.99,,2013-05-09 18:01:00,
2013-05-09 14:12:00,75.0,53.0,29.98,WNW,284,1.0,-999.0,47,-99.99,,,-99.99,,2013-05-09 18:12:00,
2013-05-09 14:22:00,75.0,53.0,29.98,NNW,338,1.0,-999.0,46,-99.99,,,-99.99,,2013-05-09 18:22:00,
2013-05-09 14:32:00,75.0,52.0,29.98,NW,306,1.0,-999.0,44,-99.99,,,-99.99,,2013-05-09 18:32:00,
2013-05-09 14:42:00,75.0,52.0,29.98,NW,306,1.0,-999.0,44,-99.99,,,-99.99,,2013-05-09 18:42:00,
2013-05-09 14:52:00,75.0,52.0,29.98,WNW,295,1.0,-999.0,44,-99.99,,,-99.99,,2013-05-09 18:52:00,
2013-05-09 15:01:00,75.0,51.0,29.97,WNW,283,1.0,-999.0,43,-99.99,,,-99.99,,2013-05-09 19:01:00,
2013-05-09 15:12:00,75.0,51.0,29.97,WNW,283,1.0,-999.0,43,-99.99,,,-99.99,,2013-05-09 19:12:00,
2013-05-09 15:21:00,75.0,50.0,29.97,WNW,288,1.0,-999.0,42,-99.99,,,-99.99,,2013-05-09 19:21:00,
2013-05-09 15:32:00,75.0,48.0,29.97,WNW,295,1.0,-999.0,38,-99.99,,,-99.99,,2013-05-09 19:32:00,
2013-05-09 15:42:00,75.0,48.0,29.97,WNW,295,1.0,-999.0,38,-99.99,,,-99.99,,2013-05-09 19:42:00,
2013-05-09 15:52:00,75.0,47.0,29.96,NW,308,1.0,-999.0,37,-99.99,,,-99.99,,2013-05-09 19:52:00,
2013-05-09 16:01:00,75.0,48.0,29.96,West,269,1.0,-999.0,39,-99.99,,,-99.99,,2013-05-09 20:01:00,
2013-05-09 16:11:00,75.0,48.0,29.96,West,269,1.0,-999.0,39,-99.99,,,-99.99,,2013-05-09 20:11:00,
2013-05-09 16:22:00,75.0,47.0,29.96,WNW,291,1.0,-999.0,37,-99.99,,,-99.99,,2013-05-09 20:22:00,
2013-05-09 16:32:00,76.0,49.0,29.96,WNW,287,1.0,-999.0,38,-99.99,,,-99.99,,2013-05-09 20:32:00,
2013-05-09 16:42:00,75.0,48.0,29.96,West,272,1.0,-999.0,38,-99.99,,,-99.99,,2013-05-09 20:42:00,
2013-05-09 16:52:00,75.0,48.0,29.96,West,272,1.0,-999.0,38,-99.99,,,-99.99,,2013-05-09 20:52:00,
2013-05-09 17:02:00,75.0,46.0,29.96,WNW,295,1.0,-999.0,36,-99.99,,,-99.99,,2013-05-09 21:02:00,
2013-05-09 17:12:00,75.0,46.0,29.96,WNW,295,1.0,-999.0,36,-99.99,,,-99.99,,2013-05-09 21:12:00,
2013-05-09 17:22:00,75.0,48.0,29.95,WNW,288,0.0,-999.0,38,-99.99,,,-99.99,,2013-05-09 21:22:00,
2013-05-09 17:32:00,75.0,46.0,29.95,WNW,291,0.0,-999.0,36,-99.99,,,-99.99,,2013-05-09 21:32:00,
2013-05-09 17:43:00,75.0,46.0,29.94,WNW,300,0.0,-999.0,36,-99.99,,,-99.99,,2013-05-09 21:43:00,
2013-05-09 17:53:00,75.0,46.0,29.94,WNW,300,0.0,-999.0,36,-99.99,,,-99.99,,2013-05-09 21:53:00,
2013-05-09 18:03:00,75.0,45.0,29.94,WNW,302,0.0,-999.0,34,-99.99,,,-99.99,,2013-05-09 22:03:00,
2013-05-09 18:13:00,75.0,45.0,29.93,WNW,302,0.0,-999.0,34,-99.99,,,-99.99,,2013-05-09 22:13:00,
2013-05-09 18:23:00,75.0,45.0,29.93,WNW,302,0.0,-999.0,34,-99.99,,,-99.99,,2013-05-09 22:23:00,
2013-05-09 18:33:00,75.0,47.0,29.93,NNW,344,0.0,-999.0,37,-99.99,,,-99.99,,2013-05-09 22:33:00,
2013-05-09 18:42:00,75.0,46.0,29.93,NNW,344,0.0,-999.0,36,-99.99,,,-99.99,,2013-05-09 22:42:00,
2013-05-09 18:52:00,75.0,46.0,29.93,NNW,344,0.0,-999.0,36,-99.99,,,-99.99,,2013-05-09 22:52:00,
2013-05-09 19:02:00,75.0,46.0,29.93,NNW,344,0.0,-999.0,36,-99.99,,,-99.99,,2013-05-09 23:02:00,
2013-05-09 19:12:00,75.0,45.0,29.93,NNW,344,0.0,-999.0,34,-99.99,,,-99.99,,2013-05-09 23:12:00,
2013-05-09 19:22:00,75.0,45.0,29.93,NNW,344,0.0,-999.0,34,-99.99,,,-99.99,,2013-05-09 23:22:00,
2013-05-09 19:32:00,75.0,46.0,29.94,NNW,344,0.0,-999.0,36,-99.99,,,-99.99,,2013-05-09 23:32:00,
2013-05-09 19:42:00,74.0,46.0,29.94,NNW,344,0.0,-999.0,37,-99.99,,,-99.99,,2013-05-09 23:42:00,
2013-05-09 19:52:00,74.0,46.0,29.94,NNW,344,0.0,-999.0,37,-99.99,,,-99.99,,2013-05-09 23:52:00,
2013-05-09 20:01:00,73.0,46.0,29.95,NNW,344,0.0,-999.0,38,-99.99,,,-99.99,,2013-05-10 00:01:00,
2013-05-09 20:11:00,73.0,47.0,29.94,NNW,344,0.0,-999.0,39,-99.99,,,-99.99,,2013-05-10 00:11:00,
2013-05-09 20:22:00,73.0,47.0,29.94,NNW,344,0.0,-999.0,39,-99.99,,,-99.99,,2013-05-10 00:22:00,
2013-05-09 20:32:00,73.0,45.0,29.94,NNW,344,0.0,-999.0,37,-99.99,,,-99.99,,2013-05-10 00:32:00,
2013-05-09 20:42:00,73.0,48.0,29.94,NNW,344,0.0,-999.0,41,-99.99,,,-99.99,,2013-05-10 00:42:00,
2013-05-09 20:52:00,73.0,48.0,29.94,NNW,344,0.0,-999.0,41,-99.99,,,-99.99,,2013-05-10 00:52:00,
2013-05-09 21:01:00,73.0,48.0,29.94,NNW,344,0.0,-999.0,41,-99.99,,,-99.99,,2013-05-10 01:01:00,
2013-05-09 21:11:00,71.0,47.0,29.94,NNW,344,0.0,-999.0,43,-99.99,,,-99.99,,2013-05-10 01:11:00,
2013-05-09 21:22:00,71.0,47.0,29.94,NNW,344,0.0,-999.0,43,-99.99,,,-99.99,,2013-05-10 01:22:00,
2013-05-09 21:32:00,70.0,46.0,29.94,NNW,344,0.0,-999.0,43,-99.99,,,-99.99,,2013-05-10 01:32:00,
2013-05-09 21:42:00,70.0,46.0,29.94,NNW,344,0.0,-999.0,43,-99.99,,,-99.99,,2013-05-10 01:42:00,
2013-05-09 21:52:00,70.0,46.0,29.94,NNW,344,0.0,-999.0,43,-99.99,,,-99.99,,2013-05-10 01:52:00,
2013-05-09 22:02:00,70.0,46.0,29.94,NNW,344,0.0,-999.0,43,-99.99,,,-99.99,,2013-05-10 02:02:00,
2013-05-09 22:11:00,70.0,46.0,29.94,NNW,344,0.0,-999.0,43,-99.99,,,-99.99,,2013-05-10 02:11:00,
2013-05-09 22:21:00,70.0,46.0,29.94,NNW,344,0.0,-999.0,43,-99.99,,,-99.99,,2013-05-10 02:21:00,
2013-05-09 22:32:00,70.0,48.0,29.94,NNW,344,0.0,-999.0,45,-99.99,,,-99.99,,2013-05-10 02:32:00,
2013-05-09 22:42:00,69.0,48.0,29.94,NNW,344,0.0,-999.0,48,-99.99,,,-99.99,,2013-05-10 02:42:00,
2013-05-09 22:52:00,69.0,48.0,29.94,NNW,344,0.0,-999.0,48,-99.99,,,-99.99,,2013-05-10 02:52:00,
2013-05-09 23:01:00,69.0,49.0,29.94,NNW,344,0.0,-999.0,49,-99.99,,,-99.99,,2013-05-10 03:01:00,
2013-05-09 23:11:00,69.0,49.0,29.94,NNW,344,0.0,-999.0,49,-99.99,,,-99.99,,2013-05-10 03:11:00,
2013-05-09 23:22:00,68.0,48.0,29.94,NNW,344,0.0,-999.0,49,-99.99,,,-99.99,,2013-05-10 03:22:00,
2013-05-09 23:33:00,68.0,48.0,29.93,NNW,344,0.0,-999.0,49,-99.99,,,-99.99,,2013-05-10 03:33:00,
2013-05-09 23:43:00,68.0,48.0,29.93,NNW,344,0.0,-999.0,49,-99.99,,,-99.99,,2013-05-10 03:43:00,
2013-05-09 23:53:00,68.0,48.0,29.94,NNW,344,0.0,-999.0,49,-99.99,,,-99.99,,2013-05-10 03:53:00,